{"data":{"norad_id":58969,"epoch":"2026-09-19T22:23:07.173024Z","epoch_age_seconds":204685,"freshness":"STALE","line1":"1 58969U 24031E   26262.93272191  .00000403  00000+0  23051-4 0  9990","line2":"2 58969  53.1588 108.0052 0001203  85.7101 274.4039 15.34392778146350","mean_motion":15.34392778,"eccentricity":0.0001203,"inclination_deg":53.1588,"raan_deg":108.0052,"arg_perigee_deg":85.7101,"mean_anomaly_deg":274.4039,"bstar":2.3051e-5,"rev_number":14635,"period_min":93.848199799074,"perigee_km":461.90174993408,"apogee_km":463.54766126045,"semimajor_km":6840.8617055973,"source":"CELESTRAK","updated_at":"2026-09-21T09:00:34.019328Z"}}